Location: Unspecified
(42.2730°N, 83.7130°W)
Time: 14:10:22
(UTC+00:00)

GEOS 3 Rocket - Pass Details

Date: 14 December 2025
Orbit: 769 x 844 km, 115.0° (Epoch: 17 January)

Event Time Altitude Azimuth Distance (km) Brightness Sun altitude
Exits shadow 23:38:03 14° 26° (NNE) 2,208 5.5 -16.9°
Maximum altitude 23:42:35 53° 313° (NW) 1,030 4.3 -17.7°
Drops below altitude 10° 23:47:47 10° 238° (WSW) 2,456 7.2 -18.6°
Sets 23:50:08 0° 233° (SW) 3,384 8.1 -19.0°
